Theta_e
307 308 308 308 308 308 305 302 302 302 304 305 305 305 305 306 305 309 312 313 311 308 306 307 309 311 312 313 314 320 322 325 329 329 328 327 326 327 325 323 323 328 337 338 338
307 307 308 308 307 306 303 301 302 302 304 305 305 305 305 306 312 314 314 310 305 306 306 309 311 311 310 313 313 318 324 325 325 328 329 328 327 327 327 326 323 327 337 337 337
307 307 307 306 303 301 300 300 301 302 304 305 305 305 305 307 316 314 310 307 308 310 312 312 311 310 311 312 313 317 321 323 325 327 328 329 328 328 328 326 323 323 335 336 338
306 307 307 306 302 300 300 300 300 302 303 305 305 305 305 314 318 317 308 310 311 311 313 314 310 308 312 311 313 314 316 321 322 323 324 326 327 328 328 328 326 324 324 331 337
305 305 304 303 301 301 300 300 300 301 303 305 304 305 306 317 319 310 311 311 312 312 315 313 311 308 308 312 311 312 314 316 318 321 322 323 324 326 327 327 328 326 325 325 332
303 301 302 302 302 302 301 300 301 301 303 304 304 306 316 319 311 311 311 312 313 312 312 312 311 311 310 309 309 311 313 315 316 316 320 322 323 325 326 326 328 328 326 325 330
308 308 308 302 300 302 301 300 302 302 304 304 305 311 313 313 311 310 311 310 310 311 312 313 312 311 310 310 310 311 311 313 314 315 317 317 320 326 325 325 325 327 327 325 326
309 309 309 306 303 303 302 301 302 303 306 305 306 312 314 315 311 310 309 309 311 310 311 311 312 311 311 310 311 310 310 310 314 315 316 315 317 318 319 323 325 326 327 328 326
309 306 306 304 304 305 302 302 303 303 307 306 311 313 318 315 310 309 309 310 311 310 311 311 312 311 311 310 308 310 310 309 310 311 314 315 316 317 318 320 321 322 324 328 327
307 306 306 304 304 303 302 305 312 312 312 311 314 314 315 314 310 309 310 310 310 310 312 312 309 310 309 310 309 309 310 310 310 310 310 310 314 316 317 318 319 320 323 327 327
305 306 306 303 304 303 303 310 312 314 313 317 318 317 313 311 310 310 310 310 310 310 310 310 309 311 311 313 313 312 312 312 312 312 311 311 312 313 313 316 317 319 320 324 327
303 305 305 304 303 303 304 310 310 310 310 311 312 312 312 310 309 311 311 310 309 308 309 308 308 311 312 312 313 313 313 312 312 312 312 311 312 312 313 313 314 318 319 321 324
306 304 305 304 303 305 307 314 311 311 311 312 314 311 312 310 309 310 311 309 309 308 309 308 309 310 310 310 311 311 311 312 312 313 312 311 311 311 312 313 315 316 318 319 322
306 307 305 304 308 311 312 311 311 311 311 315 312 310 310 310 310 311 310 309 308 308 308 308 308 309 308 309 310 310 311 311 311 311 311 312 311 310 312 313 315 316 316 317 319
306 306 306 304 305 310 311 311 312 311 323 313 310 310 310 309 310 311 311 309 309 309 308 308 308 308 310 314 314 315 315 314 314 312 310 310 309 310 311 312 312 314 317 316 317
306 307 305 309 310 313 312 311 312 318 324 311 311 310 309 311 311 312 311 309 310 309 309 308 309 311 313 314 314 314 315 314 313 311 312 309 310 310 311 312 312 313 315 316 319
305 307 307 306 311 311 310 311 317 323 316 312 311 311 311 311 312 312 310 310 309 310 309 308 308 310 314 313 313 312 313 314 312 312 313 309 309 309 310 312 313 312 313 315 316
305 308 310 306 310 310 310 314 321 319 315 312 311 311 312 312 313 312 311 310 311 309 306 307 309 310 312 311 311 311 314 318 321 313 311 313 313 310 311 311 313 314 313 313 315
306 311 313 313 313 311 311 317 320 316 312 311 311 312 312 313 312 311 311 311 312 312 312 312 312 311 311 311 312 314 314 314 318 317 317 313 312 312 311 314 316 315 315 314 314
305 310 315 314 313 310 312 317 316 310 309 310 311 312 312 312 311 312 313 312 311 312 311 312 314 312 311 311 311 312 312 313 316 316 316 314 314 312 320 317 316 315 314 315 316
308 314 314 313 309 310 316 317 315 311 309 311 311 313 312 313 311 312 312 311 312 313 311 313 314 313 311 311 311 310 315 315 315 316 315 315 315 319 316 316 315 314 314 316 317
308 315 312 309 309 314 316 315 312 312 311 311 312 312 312 312 312 311 311 312 312 312 313 314 314 314 312 310 311 311 314 313 317 316 315 314 314 315 314 314 314 313 314 316 317
308 313 311 311 316 313 313 311 311 313 312 310 312 311 311 311 313 313 313 312 312 312 314 313 313 315 313 310 313 314 312 316 316 317 317 320 317 315 314 314 314 315 316 317 317
310 313 313 312 311 311 311 312 311 313 313 312 312 311 311 312 311 314 312 311 312 312 313 314 316 315 315 314 313 314 313 313 313 316 316 315 316 316 316 314 315 316 315 315 314
311 312 308 311 309 310 311 311 312 313 312 311 311 311 312 312 311 311 312 313 312 315 315 314 317 315 314 314 314 314 314 313 312 314 315 314 314 314 316 314 315 315 315 314 313
307 306 305 305 308 311 313 311 310 310 309 310 311 311 310 310 310 311 312 312 313 315 315 314 315 317 319 315 315 315 313 313 312 311 312 312 313 312 314 313 314 314 314 313 313
305 305 305 305 307 310 311 309 310 309 310 309 309 309 310 310 310 311 311 310 312 315 312 311 314 316 316 314 314 315 314 313 313 313 312 313 313 310 314 314 313 313 313 313 315
Wind_Speed
19 18 19 20 19 19 19 18 17 15 15 17 19 20 22 23 28 19 8 5 5 10 12 16 16 14 13 5 6 4 8 11 16 16 18 19 13 17 12 6 6 6 4 6 17
20 20 20 20 20 20 19 19 18 16 16 18 20 22 23 24 22 12 5 3 5 9 7 9 9 8 5 4 5 6 7 18 15 16 19 21 16 17 15 19 8 3 9 16 21
20 21 21 21 21 20 20 20 18 18 18 19 22 23 23 21 6 2 7 4 5 5 4 10 15 8 6 6 10 7 20 14 17 19 22 23 22 15 16 15 10 4 3 7 24
21 21 21 22 21 21 21 21 20 19 19 20 23 24 23 3 5 7 2 2 5 6 8 10 7 5 4 7 7 17 19 18 20 22 23 25 20 22 19 15 17 11 2 8 13
21 22 23 23 22 21 21 21 19 20 20 20 22 20 11 3 7 3 2 4 8 9 15 7 6 6 8 6 13 21 18 17 20 19 23 25 25 21 24 20 20 16 7 4 10
24 24 26 25 24 23 21 20 19 20 20 20 19 13 3 5 3 2 4 8 12 8 4 10 6 9 7 8 9 9 15 16 17 18 19 26 26 19 23 18 17 19 9 2 9
26 27 27 26 25 24 21 18 19 18 19 18 11 6 6 13 3 5 8 8 13 9 2 6 13 7 10 9 8 11 12 14 17 13 15 10 19 27 20 19 20 21 13 8 6
27 28 28 28 27 25 21 20 19 17 16 13 6 3 6 1 6 6 9 12 9 11 12 12 9 4 5 8 10 8 9 6 2 13 19 8 23 20 13 16 18 19 19 19 8
30 31 32 30 28 24 21 20 18 18 15 9 4 6 7 10 5 6 7 7 10 12 12 11 4 5 5 7 6 5 9 11 15 8 8 11 25 23 15 15 19 20 20 20 20
31 33 35 33 26 21 20 21 13 14 7 6 10 4 8 5 5 7 11 4 9 8 8 7 5 5 4 4 5 7 9 10 14 6 12 16 19 23 21 20 20 19 19 17 17
32 34 35 32 24 17 21 8 3 1 5 8 7 10 16 9 6 6 8 5 9 7 5 6 5 6 12 13 16 15 15 13 13 9 12 13 15 19 12 18 21 21 12 17 18
34 35 36 29 21 13 13 4 8 8 8 12 15 15 15 6 6 8 6 3 6 7 9 6 6 8 13 12 12 12 16 15 11 11 13 15 16 20 15 15 14 20 21 19 15
37 37 36 27 17 11 10 10 12 11 3 10 11 8 6 1 5 8 3 3 6 8 8 7 12 15 17 16 15 12 14 10 13 10 12 9 16 20 20 14 16 16 18 19 18
38 38 34 25 10 10 4 11 13 10 3 5 5 4 3 4 7 10 9 5 3 7 8 7 10 15 13 14 14 16 14 18 17 12 11 4 15 15 21 17 13 15 12 10 8
38 37 31 13 14 8 11 11 11 1 2 6 9 8 4 5 6 12 14 6 8 12 6 10 11 14 10 11 17 13 23 13 18 17 10 8 9 13 10 19 17 16 12 12 10
40 33 26 4 9 14 17 15 12 1 3 5 6 6 7 9 9 4 8 7 9 11 9 10 8 1 3 10 10 14 13 15 15 8 12 10 7 18 12 17 17 16 15 18 20
42 30 15 8 5 18 15 9 2 3 4 5 6 13 12 14 16 7 3 4 4 5 6 6 5 2 3 5 7 10 7 4 4 7 13 10 13 19 11 16 14 15 19 16 11
38 18 5 7 8 12 13 2 2 8 7 12 12 12 14 12 11 12 12 6 7 6 4 5 8 1 3 5 4 6 3 3 4 5 7 14 10 13 11 18 17 15 15 15 17
34 10 4 1 2 7 3 2 1 10 12 12 13 11 11 17 9 11 8 5 6 9 6 6 7 11 7 13 10 5 6 15 10 8 2 7 16 14 17 10 20 23 27 20 19
25 7 4 6 1 5 1 4 3 7 11 9 6 6 12 13 10 11 8 7 14 13 12 7 14 6 11 13 11 7 6 5 3 3 4 5 11 8 13 15 19 21 23 24 24
3 2 2 1 2 1 1 4 13 12 2 3 10 11 8 7 11 12 9 14 10 11 9 7 4 10 10 5 13 13 4 4 2 2 4 4 4 2 6 8 15 19 24 23 18
8 1 7 2 1 2 3 7 13 13 9 5 1 5 6 8 9 10 11 7 9 5 5 2 4 10 19 18 18 12 4 5 4 5 4 4 8 4 6 9 13 17 24 24 18
6 3 4 2 0 4 8 13 13 14 9 5 5 5 6 7 4 7 13 11 7 5 4 3 4 6 9 6 3 3 4 4 0 5 6 6 5 6 10 12 11 13 23 23 21
3 4 2 2 4 7 8 7 13 9 8 14 3 6 7 8 7 6 13 7 7 5 2 1 4 8 11 14 10 18 13 11 5 4 9 12 16 18 5 4 8 15 20 23 20
2 4 5 5 5 10 11 7 10 9 7 9 6 10 10 7 12 11 13 20 9 4 2 6 6 12 20 20 20 22 20 19 19 16 15 21 17 18 8 5 1 10 22 27 25
4 4 5 6 9 9 11 5 7 10 10 10 7 11 9 11 13 19 16 13 9 6 3 2 4 7 15 20 20 21 19 21 19 19 17 22 20 24 8 5 9 15 27 24 21
7 5 3 7 6 7 4 10 12 10 2 9 11 10 12 16 14 14 15 18 18 7 4 2 3 3 5 11 13 7 8 10 10 13 14 14 14 5 6 11 18 21 22 19 15
Wind_Direction
344 341 338 336 335 335 333 332 331 327 326 327 328 326 326 325 321 322 238 243 236 296 305 299 289 265 261 248 272 280 242 244 241 251 263 287 304 313 304 305 328 322 103 159 118
342 340 337 334 332 331 330 328 326 322 320 322 325 325 327 331 320 270 242 240 304 308 308 307 308 285 218 229 216 208 234 234 247 255 267 280 289 295 325 322 300 47 129 150 124
343 339 336 334 331 330 327 325 320 319 319 322 326 326 329 331 287 115 173 313 322 305 295 277 276 284 273 230 228 230 240 248 252 255 259 274 286 315 310 300 286 272 219 145 136
343 339 335 333 331 326 322 321 316 314 315 320 326 327 332 338 24 162 359 359 349 291 286 274 240 244 265 251 271 247 245 242 253 272 283 279 296 297 298 287 290 283 150 311 153
343 339 336 332 328 323 318 316 312 310 311 315 323 329 347 254 247 156 344 286 303 258 238 270 296 269 243 246 236 257 269 261 249 246 257 274 271 275 283 286 296 288 308 24 266
346 341 336 331 326 322 315 312 308 305 307 312 317 327 259 262 39 187 302 278 266 270 308 310 298 310 273 281 279 297 292 279 268 261 245 246 265 262 263 273 280 288 283 297 292
343 340 334 331 327 322 313 307 301 299 307 312 311 316 263 244 301 280 291 337 304 290 277 264 324 358 334 320 292 324 310 291 278 274 264 283 262 254 254 260 270 283 286 279 226
338 334 333 329 325 321 312 304 299 301 309 315 308 280 253 217 241 259 0 320 313 332 297 294 231 256 280 278 296 299 290 288 1 245 264 275 273 263 277 254 259 269 274 272 249
337 340 339 332 327 322 308 300 297 295 296 298 297 196 274 190 219 23 334 291 307 300 300 277 203 199 291 283 294 240 266 276 286 272 263 213 258 266 263 267 255 251 263 267 270
340 341 340 335 332 322 306 311 302 284 295 243 259 269 273 257 57 351 290 292 299 267 272 237 198 191 244 212 242 251 257 257 254 269 256 260 255 254 252 249 259 243 241 245 253
345 342 339 336 330 320 319 348 351 316 240 249 227 239 299 317 11 321 295 329 280 332 304 312 326 239 232 239 238 249 263 281 291 336 333 295 290 287 299 263 247 250 255 236 232
350 345 340 334 324 308 305 258 22 290 300 273 267 264 269 282 273 276 311 320 337 310 308 327 282 275 305 294 277 282 276 277 299 315 300 301 295 293 295 287 272 257 241 238 234
352 348 342 332 319 296 243 283 333 0 308 297 225 232 216 21 269 270 136 284 315 315 313 318 302 315 315 312 311 301 295 298 280 283 270 294 294 292 289 282 284 267 255 238 225
345 345 342 331 314 314 320 351 349 11 299 207 158 177 199 232 248 207 196 178 254 291 293 280 291 293 300 301 302 289 273 283 288 288 276 223 278 280 290 289 286 280 268 260 250
343 339 335 334 302 311 350 343 336 342 5 188 131 154 207 213 263 288 169 161 237 251 254 250 277 291 307 352 339 315 330 308 313 289 290 268 276 279 287 282 279 285 283 259 240
339 334 331 332 285 286 320 329 312 279 263 144 157 212 205 254 296 256 249 177 228 245 259 262 256 315 184 329 319 307 341 332 303 272 265 260 243 275 260 275 279 282 282 283 264
336 333 317 275 254 339 342 329 353 238 233 71 9 4 337 302 285 259 283 280 274 288 293 321 330 25 97 307 320 334 41 312 295 250 257 244 246 246 249 252 270 275 276 277 290
337 339 323 260 296 333 341 342 253 331 360 5 0 326 290 315 9 342 316 330 332 21 338 306 314 73 127 191 243 297 255 188 274 271 297 313 285 277 284 308 292 291 275 282 286
337 3 302 122 308 318 13 309 335 324 7 2 349 323 331 357 1 329 338 330 358 18 342 316 288 303 226 259 242 170 262 237 220 283 332 271 282 285 277 345 360 355 347 319 297
336 310 291 158 167 314 358 287 300 29 356 353 317 317 338 345 353 336 335 346 342 34 3 334 309 289 327 332 314 185 209 307 214 243 255 250 272 266 8 358 346 342 333 320 322
324 264 131 198 315 354 271 266 305 326 25 356 307 311 337 335 333 319 309 320 343 11 351 28 294 296 321 281 291 310 310 360 35 220 208 262 255 46 8 359 337 329 332 314 313
319 325 152 223 4 199 251 292 345 335 4 320 47 319 350 324 318 304 296 302 79 65 337 64 274 283 274 279 272 278 316 181 226 279 250 267 289 6 42 2 343 330 320 300 301
315 268 166 260 33 329 327 347 313 338 331 332 3 357 326 297 308 319 295 312 65 36 5 348 291 306 302 257 111 105 318 133 277 232 244 284 268 50 4 359 329 341 310 302 314
294 324 21 334 12 18 336 329 327 320 341 352 276 285 291 289 283 279 307 304 286 237 274 138 234 223 260 270 301 293 285 267 261 275 285 261 279 283 249 350 318 338 300 295 299
320 26 355 322 339 316 301 291 306 337 357 351 333 329 346 327 316 298 311 304 302 54 100 187 247 233 256 269 274 271 275 271 262 245 253 275 281 284 213 109 279 293 289 281 291
7 1 349 294 308 294 293 347 347 331 331 314 296 329 331 305 284 290 301 306 302 360 244 199 267 276 270 271 262 268 263 259 260 264 254 265 275 278 210 203 244 249 250 264 272
354 340 330 291 304 310 17 332 311 306 278 296 289 304 298 281 289 304 291 283 282 187 186 204 270 268 264 322 322 287 300 267 274 282 237 262 291 175 199 215 231 243 261 270 277